Regional Weather Roundup
Issued by NWS Green Bay, WI

Home | Current Version | Previous Version | Text Only | Print | Product List | Glossary On
Versions: 1 2 3 4 5 6 7 8 9 10 11 12 13 14 15 16 17 18 19 20 21 22 23 24 25 26 27 28 29 30 31 32 33 34 35 36 37 38 39 40 41 42 43 44 45 46 47 48 49 50
000
ASUS43 KGRB 270211
RWRGRB

NORTH-CENTRAL AND NORTHEAST WISCONSIN REGIONAL WEATHER ROUNDUP
NATIONAL WEATHER SERVICE GREEN BAY WI
900 PM CDT WED APR 26 2017

WIZ005-009-010>012-018-019-270300-
NORTH CENTRAL WISCONSIN

CITY           SKY/WX    TMP DP  RH WIND       PRES   REMARKS
IRONWOOD       LGT SNOW  29  28  96 NE8       29.57R FOG
MANITOWISH WTR CLOUDY    32  32 100 N7        29.52R
ARBOR VITAE    CLOUDY    34  33  94 N7        29.50R
EAGLE RIVER    CLOUDY    33  33  97 NW8       29.51R
LAND O LAKES   CLOUDY    33  32  99 NW5       29.52R FOG
RHINELANDER    CLOUDY    37  37 100 NW8       29.50R
PHILLIPS       CLOUDY    32  32  99 N6        29.52R
ANTIGO         CLOUDY    42  42  99 NW9       29.49R
TOMAHAWK       CLOUDY    35  34  94 N5        29.51S
MERRILL        CLOUDY    39  39 100 N5        29.51R
$$

WIZ013-073-270300-
NORTHEAST WISCONSIN

CITY           SKY/WX    TMP DP  RH WIND       PRES   REMARKS
IRON MOUNTAIN  CLOUDY    42  38  85 NW12      29.45R
MARINETTE      CLOUDY    62  56  80 SW9       29.42R
OCONTO         CLOUDY    60  55  85 W13       29.43R
$$

WIZ017-030-035>037-045-270300-
CENTRAL WISCONSIN

CITY           SKY/WX    TMP DP  RH WIND       PRES   REMARKS
MEDFORD        CLOUDY    37  35  94 N6        29.49F
WAUSAU         CLOUDY    43  41  93 W9        29.48R
MOSINEE        CLOUDY    43  39  87 W8        29.50R
MARSHFIELD     CLOUDY    40  37  89 NW10      29.49R
WISC RAPIDS    CLOUDY    44  42  93 NW7       29.50S
STEVENS POINT  CLOUDY    42  40  93 W7        29.49S
WAUPACA        CLOUDY    49  47  92 W9        29.48S FOG
SHAWANO        CLOUDY    54  50  86 W8        29.47R
CLINTONVILLE   CLOUDY    50  46  87 W9        29.47R
WAUTOMA        CLOUDY    46  44  93 NW10      29.48S
$$

WIZ038-039-048-051-270300-
FOX VALLEY

CITY           SKY/WX    TMP DP  RH WIND       PRES   REMARKS
NWS GREEN BAY  CLOUDY    58  55  90 W12       29.45R
APPLETON       CLOUDY    52  48  87 W15       29.45R
OSHKOSH        CLOUDY    52  49  89 W9        29.44F
FOND DU LAC    CLOUDY    58  51  78 SW8       29.45S
$$

WIZ022-050-052-270300-
EAST CENTRAL WISCONSIN

CITY           SKY/WX    TMP DP  RH WIND       PRES   REMARKS
EPHRAIM        FAIR      58  56  94 S5        29.43R
WASHINGTON ISL FAIR      49  47  95 S7        29.43R FOG
STURGEON BAY   CLOUDY    61  56  83 MISG      29.44R
MANITOWOC      CLOUDY    61  56  83 SW3       29.44S
SHEBOYGAN      CLOUDY    61  56  83 SW6       29.43F
$$

LMZ563-521-522-541>543-270300-
LAKESHORE

STATION/POSITION TIME  TEMP    WIND        PRES    VSBY  WAVE
                       AIR SEA DIR/SP/G                  HT/PER
                 (UTC) (F)     (DEG/KT/KT) (MB)    (MI)  (FT/S)
SHEBOYGAN LKSHOR 0200   60     200/  3/  4  996.3F
KEWAUNEE LKSHORE 0148   62     210/  9/ 12  997.0R
NORTHPORT PIER   0140   48     150/  5/ 14  996.6R
N MID LAKE BUOY  0150   41 37  160/  8/ 12  997.9R         2/ 5
CHAMBERS ISLAND  0140   61     180/  3/  7  995.9R
MENOMINEE LKSHOR 0148   61     200/ 12/ 16  995.6R
$$



USA.gov is the U.S. government's official web portal to all federal, state and local government web resources and services.